Voltar ao catálogo

STARLINK-38041

AtivoComunicaçõesSSO
NORAD 69742·PAYLOAD·🇺🇸 United States

Lançado Jul 2, 2026 de Vandenberg Space Force Base

Loading…

Próximas Passagens (próximas 24 horas)

TLE

AtualizadoSource: CelesTrak SupGP

Época: Sep 14, 2026, 22:56 UTC

1 69742C 26150D   26257.95604167  .00135370  00000+0  42071-2 0  2573
2 69742  97.2843  96.9867 0001738  90.5419  64.8978 15.33332983    18

Acompanhe STARLINK-38041 em tempo real com AllMySat

Download on the App Store